Regional Weather Roundup
Issued by NWS

Home | Current Version | Previous Version | Graphics & Text | Print | Product List | Glossary Off
Versions: 1 2 3 4 5 6 7 8 9 10 11 12 13 14 15 16 17 18 19 20 21 22 23 24 25 26 27 28 29 30 31 32 33 34 35 36 37 38 39 40 41 42 43 44 45 46 47 48 49 50

000
ASUS43 KMPX 221310
RWRMN
WEATHER ROUNDUP FOR MINNESOTA
NATIONAL WEATHER SERVICE TWIN CITIES/CHANHASSEN MN
700 AM CST MON DEC 22 2014


NOTE: "FAIR" INDICATES FEW OR NO CLOUDS BELOW 12,000 FEET WITH NO
SIGNIFICANT WEATHER AND/OR OBSTRUCTIONS TO VISIBILITY. N/A MEANS
CURRENT SKY AND/OR WEATHER CONDITIONS ARE NOT AVAILABLE.

MNZ060>063-068>070-221400-
   Twin Cities Metro

CITY           SKY/WX    TMP DP  RH WIND       PRES   REMARKS
TWIN CITIES    CLOUDY    37  35  92 SE16      29.67S FOG
ST PAUL        CLOUDY    37  36  96 SE14      29.69S FOG
CRYSTAL        CLOUDY    39  36  89 SE13      29.65S FOG
BLAINE         CLOUDY    39  39 100 SE12      29.66S FOG
LAKEVILLE      CLOUDY    36  34  93 SE10      29.66S FOG
EDEN PRAIRIE   CLOUDY    38  35  89 SE13      29.64S FOG
SOUTH ST PAUL  CLOUDY    37  36  94 SE8       29.68S FOG
LAKE ELMO      DRIZZLE   36  36 100 SE10G16   29.69S
$$
MNZ001>005-007-008-013>017-022>024-027-028-221400-
   Northwest Minnesota

CITY           SKY/WX    TMP DP  RH WIND       PRES   REMARKS
BEMIDJI        CLOUDY    34  33  98 E9        29.56S FOG     WCI  26
HALLOCK        CLOUDY    36  34  93 E9        29.56S FOG
ROSEAU         CLOUDY    34  30  86 E9        29.60R FOG     WCI  26
WARROAD        CLOUDY    34  28  80 E10       29.61S FOG     WCI  26
THIEF RVR FALL CLOUDY    34  34 100 E12       29.56R WCI  25
CROOKSTON      MIX PCPN  36  34  93 E9        29.55R
FOSSTON        CLOUDY    34  34 100 E6        29.55R WCI  29
DETROIT LAKES  LGT RAIN  36  36 100 SE10      29.52S
MOORHEAD       CLOUDY    37  37 100 SE9       29.50F FOG
PARK RAPIDS    CLOUDY    36  35  96 SE9       29.54S FOG
MAHNOMEN       CLOUDY    35  34  95 SE9       29.52S WCI  28
$$
MNZ006-009>011-018-025>026-221400-
   North Central Minnesota

CITY           SKY/WX    TMP DP  RH WIND       PRES   REMARKS
BAUDETTE       CLOUDY    33  32  96 E10       29.61S WCI  25
FLAG ISLAND    FOG       34  32  93 E8        29.62S VSB 1   WCI  27
INTL FALLS     CLOUDY    33  31  92 E8        29.65S WCI  26
WASKISH        CLOUDY    34  34 100 CALM      29.61R
BIG FORK       CLOUDY    34  34 100 SE7       29.63S FOG     WCI  28
LONGVILLE      DRIZZLE   36  36 100 SE6       29.59S
GRAND RAPIDS   CLOUDY    34  32  93 SE7       29.63R WCI  28
CRANE LAKE     CLOUDY    32  30  93 CALM      29.70R FOG
ORR            CLOUDY    32  30  93 SE5       29.64R WCI  27
COOK           CLOUDY    34  34 100 SE5       29.67S WCI  30
WALKER         DRIZZLE   33  33  99 E5        29.57S WCI  29
$$
MNZ012-019>021-037-221400-
   Northeast Minnesota

CITY           SKY/WX    TMP DP  RH WIND       PRES   REMARKS
DULUTH         LGT SNOW  33  31  92 SE8       29.69R FOG     WCI  26
ELY            LGT SNOW  34  32  93 SE6       29.69S WCI  29
HIBBING        CLOUDY    34  32  92 SE10      29.66S WCI  26
EVELETH        MIX PCPN  34  32  93 SE6       29.68S WCI  29
DULUTH HARBOR  MIX PCPN  34  34 100 NE8       29.73S WCI  27
TWO HARBORS    CLOUDY    36  30  80 E5        29.71S
SILVER BAY     LGT SNOW  34  32  93 CALM      29.72S
GRAND MARAIS     N/A     36  33  89 S8        29.80R
G MARAIS ARPRT SNOW      30  28  93 S3        29.75S VSB 1/4
$$
MNZ029>031-032-039>041-046>048-054>057-064-221400-
   West Central Minnesota

CITY           SKY/WX    TMP DP  RH WIND       PRES   REMARKS
FERGUS FALLS   CLOUDY    36  36 100 SE14      29.53S FOG
WHEATON        CLOUDY    34  34 100 SE13      29.51R FOG     WCI  25
MORRIS         DRZL/FOG  36  36 100 SE16      29.50S VSB 1
ALEXANDRIA     CLOUDY    36  36 100 SE12      29.54S FOG
ELBOW LAKE     LGT RAIN  36  36 100 SE16      29.50S
WADENA         CLOUDY    34  34 100 SE10      29.54S FOG     WCI  26
GLENWOOD       DRIZZLE   36  36 100 SE10      29.55R
APPLETON       LGT RAIN  39  37  93 SE12      29.51S
BENSON         MIX PCPN  37  36  93 S12       29.53S
ORTONVILLE     LGT RAIN  36  34  93 SE12G17   29.49R
MADISON        LGT RAIN  39  37  93 SE13      29.50S
WILLMAR        CLOUDY    37  36  93 SE13      29.56S FOG
$$
MNZ033>034-036-042>043-049>051-058-059-221400-
   Central Minnesota

CITY           SKY/WX    TMP DP  RH WIND       PRES   REMARKS
ST CLOUD       CLOUDY    39  36  89 SE14      29.61S FOG
SAUK CENTRE    DRIZZLE   36  36 100 SE10      29.56S
PAYNESVILLE    DRIZZLE   34  34 100 E9        29.58S WCI  27
AITKIN         CLOUDY    37  34  87 SE8       29.61S HAZE
PINE RIVER     DRIZZLE   36  36 100 SE8       29.63R
BRAINERD       CLOUDY    36  35  96 SE12      29.60S FOG
STAPLES        CLOUDY    36  36 100 SE8       29.56S FOG
LONG PRAIRIE   MIX PCPN  34  34 100 SE13      29.56S WCI  25
LITTLE FALLS   CLOUDY    36  34  93 SE12      29.59F FOG
LITCHFIELD     CLOUDY    37  37 100 SE10      29.59S FOG
BUFFALO        CLOUDY    37  36  93 SE10      29.63F FOG
MAPLE LAKE     CLOUDY    38  38  99 SE8G18    29.62S FOG
$$
MNZ037-044-045-052-053-221400-
   East Central Minnesota

CITY           SKY/WX    TMP DP  RH WIND       PRES   REMARKS
PRINCETON      CLOUDY    37  36  93 SE9G17    29.64S FOG
MORA           CLOUDY    34  34 100 SE7       29.67S WCI  28
CAMBRIDGE      CLOUDY    37  32  81 SE10      29.64S HAZE
RUSH CITY      CLOUDY    36  34  94 SE9       29.68S
MOOSE LAKE     LGT RAIN  34  32  93 CALM      29.66S
HINCKLEY       CLOUDY    36  36 100 SE7       29.67S FOG
CLOQUET        LGT SNOW  34  32  93 E6        29.68S WCI  29
MCGREGOR       CLOUDY    34  34 100 SE7       29.64S WCI  28
$$
MNZ071>073-080-081-089-090-097-098-221400-
   Southwest Minnesota

CITY           SKY/WX    TMP DP  RH WIND       PRES   REMARKS
MONTEVIDEO     DRIZZLE   37  37 100 S10       29.53S
GRANITE FALLS  LGT RAIN  38  37  99 SE12      29.54S
CANBY          LGT RAIN  37  36  98 SE7       29.50S
MARSHALL       CLOUDY    37  36  93 SE12      29.51S
REDWOOD FALLS  LGT RAIN  39  38  96 SE17      29.55S FOG
OLIVIA         DRIZZLE   37  37 100 SE14      29.55S
PIPESTONE      DRIZZLE   37  37 100 S10G17    29.46F
WINDOM         LGT RAIN  39  37  93 SE15      29.54S
WORTHINGTON    CLOUDY    39 -11  11 SE16      29.52S
JACKSON        DRIZZLE   37  37 100 SE15G21   29.55F
TRACY          RAIN      39  38  97 S12       29.51F
SLAYTON        LGT RAIN  37  37 100 SE15      29.51S
$$
MNZ065>067-074>077-082>085-091>093-221400-
   South Central Minnesota

CITY           SKY/WX    TMP DP  RH WIND       PRES   REMARKS
MANKATO        CLOUDY    37  34  87 SE17      29.62S
NEW ULM        RAIN      39  39 100 SE14      29.58S
ST JAMES       DRIZZLE   39  37  93 SE16G22   29.59S
FAIRMONT       CLOUDY    37  36  93 SE17G23   29.58S
GLENCOE        DRIZZLE   38  38  99 SE12      29.60S
FARIBAULT      CLOUDY    37  36  93 SE12      29.66S FOG
OWATONNA       CLOUDY    37  34  87 SE17G23   29.65F FOG
WASECA         CLOUDY    36  36 100 SE16      29.65S FOG
ALBERT LEA     FOG       36  36 100 SE14      29.64S VSB 3/4
$$
MNZ078>079-086>088-094>096-221400-
   Southeast Minnesota

CITY           SKY/WX    TMP DP  RH WIND       PRES   REMARKS
ROCHESTER      CLOUDY    35  33  92 SE17      29.70F FOG     WCI  25
RED WING       DRIZZLE   36  36 100 SE10      29.71S
STANTON        CLOUDY    37  35  90 SE15G21   29.66S FOG
DODGE CENTER   DRIZZLE   36  36 100 SE18      29.67S
WINONA         CLOUDY    36  32  87 SE9       29.76F FOG
AUSTIN         CLOUDY    36  34  93 SE9G16    29.67S FOG
PRESTON        CLOUDY    33  32  96 SE8       29.72F FOG     WCI  26
$$
ABBREVIATIONS USED IN REMARKS
   TC - TEMPERATURES IN CELSIUS
  WCI - WIND CHILL INDEX
   HX - HEAT INDEX
  VSB - VISIBILITY
$$



USA.gov is the U.S. government's official web portal to all federal, state and local government web resources and services.